This demonstration page uses our WeatherBlox Daily Observations layout. Learn more.

Left ArrowRight Arrow

39.51506, -84.39828

Hourly Observations for March 2, 2016

Temp ( °F °C ) Dew Point ( °F °C ) Humidity (%) Winds ( mph kmh ) Pressure ( in mb ) Visibility ( mi km ) Precip ( " mm )
12:15 am 00:15 Cloudy with Light Wintry Mix 32 0 21 -6.3 63 63 NW 14 22 30.03 1017 10 16 0.00 0.00
12:35 am 00:35 Cloudy with Light Wintry Mix 31 -0.7 20 -6.7 64 64 NW 13 20 30.03 1017 10 16 0.00 0.00
12:55 am 00:55 Cloudy with Light Wintry Mix 31 -0.7 20 -6.5 65 65 NW 9 15 30.06 1018 10 16 0.00 0.00
1:15 am 01:15 Cloudy with Light Wintry Mix 31 -0.7 21 -6.3 66 66 NW 8 13 30.06 1018 10 16 0.00 0.00
1:35 am 01:35 Cloudy with Light Snow 31 -0.7 20 -6.5 65 65 NW 13 20 30.06 1018 10 16 0.00 0.00
1:55 am 01:55 Cloudy 30 -1.1 19 -7.2 64 64 WNW 14 22 30.09 1019 10 16 0.00 0.00
2:15 am 02:15 Cloudy 29 -1.5 19 -7.4 65 65 WNW 10 17 N/A 10 16 0.00 0.00
2:35 am 02:35 Cloudy 29 -1.5 19 -7.4 65 65 WNW 12 19 30.09 1019 10 16 0.00 0.00
2:55 am 02:55 Cloudy 29 -1.5 19 -7.1 66 66 W 12 19 30.09 1019 10 16 0.00 0.00
3:15 am 03:15 Cloudy 29 -1.5 19 -7.1 66 66 WNW 7 11 30.09 1019 10 16 0.00 0.00
3:35 am 03:35 Cloudy with Light Snow 29 -1.5 21 -6 72 72 WNW 9 15 30.12 1020 10 16 0.00 0.00
3:55 am 03:55 Cloudy 29 -1.5 22 -5.7 73 73 W 8 13 30.12 1020 10 16 0.00 0.00
4:15 am 04:15 Cloudy 29 -1.5 20 -6.8 68 68 WNW 12 19 30.12 1020 10 16 0.00 0.00
4:35 am 04:35 Cloudy 29 -1.5 21 -6.1 71 71 W 8 13 30.12 1020 10 16 0.00 0.00
4:55 am 04:55 Cloudy 29 -1.5 21 -6.3 70 70 W 12 19 30.15 1021 10 16 0.00 0.00
5:15 am 05:15 Cloudy with Light Snow 29 -1.5 21 -6.2 71 71 W 10 17 30.15 1021 10 16 0.00 0.00
5:35 am 05:35 Cloudy with Light Snow 29 -1.5 21 -6.3 70 70 W 12 19 30.15 1021 10 16 0.00 0.00
5:55 am 05:55 Cloudy with Light Snow 29 -1.5 20 -6.5 69 69 W 10 17 30.18 1022 10 16 0.00 0.00
6:15 am 06:15 Cloudy with Light Snow 29 -1.5 20 -6.4 70 70 WNW 8 13 30.18 1022 10 16 0.00 0.00
6:35 am 06:35 Cloudy with Light Snow 29 -1.5 20 -6.4 70 70 W 10 17 30.18 1022 10 16 0.00 0.00
6:55 am 06:55 Cloudy with Light Snow 29 -1.8 20 -6.8 69 69 W 10 17 30.18 1022 10 16 0.00 0.00
7:15 am 07:15 Cloudy 27 -2.8 18 -7.9 68 68 W 10 17 30.18 1022 10 16 0.00 0.00
7:35 am 07:35 Mostly Cloudy 27 -2.8 18 -8 68 68 W 12 19 30.21 1023 10 16 0.00 0.00
7:55 am 07:55 Partly Cloudy 27 -2.8 18 -7.7 69 69 W 9 15 30.21 1023 10 16 0.00 0.00
8:15 am 08:15 Partly Cloudy 27 -2.8 18 -7.8 69 69 W 12 19 30.21 1023 10 16 0.00 0.00
8:35 am 08:35 Sunny 29 -1.5 19 -7 67 67 WNW 9 15 30.21 1023 10 16 0.00 0.00
8:55 am 08:55 Sunny 29 -1.5 18 -7.8 63 63 W 9 15 30.21 1023 10 16 0.00 0.00
9:15 am 09:15 Sunny 29 -1.5 17 -8.2 61 61 W 10 17 30.21 1023 10 16 0.00 0.00
9:35 am 09:35 Sunny 29 -1.5 16 -8.9 57 57 WNW 9 15 30.24 1024 10 16 0.00 0.00
9:55 am 09:55 Partly Cloudy 30 -0.9 16 -8.8 55 55 WNW 8 13 30.24 1024 10 16 0.00 0.00
10:15 am 10:15 Mostly Cloudy 30 -1.3 14 -9.9 52 52 WNW 12 19 30.24 1024 10 16 0.00 0.00
10:35 am 10:35 Mostly Cloudy 32 -0.1 15 -9.3 50 50 W 7 11 30.24 1024 10 16 0.00 0.00
10:55 am 10:55 Partly Cloudy 30 -1 17 -8.6 57 57 WNW 8 13 30.24 1024 10 16 0.00 0.00
11:15 am 11:15 Mostly Cloudy 34 1.2 17 -8.2 50 50 W 12 19 30.24 1024 10 16 0.00 0.00
11:35 am 11:35 Mostly Cloudy 32 0 16 -9.1 51 51 WNW 10 17 30.24 1024 10 16 0.00 0.00
11:55 am 11:55 Partly Cloudy 33 0.5 14 -9.9 46 46 W 12 19 30.24 1024 10 16 0.00 0.00
12:15 pm 12:15 Partly Cloudy 34 1.2 15 -9.3 46 46 W 12 19 30.24 1024 10 16 0.00 0.00
12:35 pm 12:35 Partly Cloudy 34 1.2 13 -10.5 42 42 WNW 8 13 30.24 1024 10 16 0.00 0.00
12:55 pm 12:55 Partly Cloudy 34 1.2 13 -10.8 41 41 WNW 12 19 30.24 1024 10 16 0.00 0.00
1:15 pm 13:15 Partly Cloudy 34 1.2 10 -12 37 37 WNW 8 13 30.24 1024 10 16 0.00 0.00
1:35 pm 13:35 Sunny 35 1.9 11 -11.7 36 36 W 13 20 30.21 1023 10 16 0.00 0.00
1:55 pm 13:55 Sunny 36 2.2 13 -10.8 38 38 W 12 19 30.21 1023 10 16 0.00 0.00
2:15 pm 14:15 Sunny 35 1.8 11 -11.6 37 37 WNW 9 15 30.21 1023 10 16 0.00 0.00
2:35 pm 14:35 Sunny 37 2.6 11 -11.5 35 35 WNW 12 19 30.21 1023 10 16 0.00 0.00
2:55 pm 14:55 Sunny 37 2.6 11 -11.9 34 34 WNW 9 15 30.21 1023 10 16 0.00 0.00
3:15 pm 15:15 Sunny 37 2.6 10 -12.2 33 33 WNW 10 17 30.21 1023 10 16 0.00 0.00
3:35 pm 15:35 Sunny 37 2.6 10 -12.1 33 33 WNW 5 7 30.21 1023 10 16 0.00 0.00
3:55 pm 15:55 Sunny 37 2.6 10 -12.2 33 33 WSW 5 7 30.21 1023 10 16 0.00 0.00
4:15 pm 16:15 Sunny 37 2.6 11 -11.9 34 34 SW 6 9 30.21 1023 10 16 0.00 0.00
4:35 pm 16:35 Sunny 37 2.6 10 -12.2 33 33 W 9 15 30.21 1023 10 16 0.00 0.00
4:55 pm 16:55 Sunny 37 2.6 10 -12.5 32 32 W 12 19 30.21 1023 10 16 0.00 0.00
5:15 pm 17:15 Sunny 37 2.6 12 -11.1 36 36 WSW 7 11 30.21 1023 10 16 0.00 0.00
5:35 pm 17:35 Sunny 37 2.6 12 -11.2 36 36 WNW 6 9 30.21 1023 10 16 0.00 0.00
5:55 pm 17:55 Sunny 37 2.6 13 -10.3 38 38 W 7 11 30.21 1023 10 16 0.00 0.00
6:15 pm 18:15 Sunny 34 1.3 13 -10.4 42 42 WNW 6 9 30.21 1023 10 16 0.00 0.00
6:35 pm 18:35 Clear 34 1.2 16 -9 47 47 W 3 6 30.21 1023 10 16 0.00 0.00
6:55 pm 18:55 Clear 34 1.2 15 -9.4 46 46 Calm 30.21 1023 10 16 0.00 0.00
7:15 pm 19:15 Clear 34 1.2 20 -6.4 57 57 Calm 30.21 1023 10 16 0.00 0.00
7:35 pm 19:35 Clear 32 -0.2 19 -7 61 61 Calm 30.24 1024 10 16 0.00 0.00
7:55 pm 19:55 Clear 31 -0.5 21 -6.3 65 65 Calm 30.24 1024 10 16 0.00 0.00
8:15 pm 20:15 Clear 29 -1.5 20 -6.9 67 67 Calm 30.24 1024 10 16 0.00 0.00
8:35 pm 20:35 Clear 29 -1.5 20 -6.6 69 69 Calm 30.21 1023 10 16 0.00 0.00
8:55 pm 20:55 Clear 29 -1.5 22 -5.5 74 74 NNE 3 6 30.21 1023 10 16 0.00 0.00
9:15 pm 21:15 Clear 29 -1.5 23 -5.1 77 77 N 3 6 30.21 1023 10 16 0.00 0.00
9:35 pm 21:35 Clear 29 -1.5 23 -5.2 76 76 Calm 30.21 1023 10 16 0.00 0.00
9:55 pm 21:55 Clear 29 -1.5 23 -5.1 77 77 Calm 30.21 1023 10 16 0.00 0.00
10:15 pm 22:15 Clear 29 -1.5 23 -5 77 77 Calm 30.21 1023 10 16 0.00 0.00
10:35 pm 22:35 Clear 29 -1.5 23 -4.8 78 78 Calm 30.21 1023 10 16 0.00 0.00
10:55 pm 22:55 Clear 29 -1.5 24 -4.7 79 79 N 3 6 30.21 1023 10 16 0.00 0.00
11:15 pm 23:15 Clear 29 -1.5 24 -4.5 80 80 Calm 30.21 1023 10 16 0.00 0.00
11:35 pm 23:35 Clear 28 -2.4 22 -5.3 81 81 Calm 30.21 1023 10 16 0.00 0.00
11:55 pm 23:55 Clear 29 -1.5 24 -4.3 81 81 Calm 30.21 1023 10 16 0.00 0.00

Powered by AerisWeather